Preview of NWS' New Version of Forecast
This preview is not operational and should not be used for support decisions.

Regional Weather Roundup (RWR)

Issued by National Weather Service (NWS)

                            
000
ASUS43 KMKX 250411
RWRWI 

WISCONSIN REGIONAL WEATHER ROUNDUP
NATIONAL WEATHER SERVICE MILWAUKEE/SULLIVAN WI
1100 PM CDT SAT AUG 24 2019

NOTE: "FAIR" INDICATES FEW OR NO CLOUDS BELOW 12,000 FEET WITH NO
SIGNIFICANT WEATHER AND/OR OBSTRUCTIONS TO VISIBILITY.

WIZ001-002-006>008-014>016-023>028-250500-
NORTHWEST WISCONSIN
  
CITY           SKY/WX    TMP DP  RH WIND       PRES   REMARKS
SUPERIOR ARPT  MOCLDY    50  50 100 CALM      30.15F                  
ASHLAND        FAIR      49  47  93 SE5       30.18F                  
HAYWARD        FAIR      51  49  92 CALM      30.18F                  
SIREN          FAIR      54  50  87 CALM      30.15F                  
CUMBERLAND     MOCLDY    55  52  88 SE5       30.16F                  
RICE LAKE      CLOUDY    59  44  56 CALM      30.17F                  
CHETEK         CLOUDY    61  56  81 SE6       30.16F                  
LADYSMITH      FAIR      57  53  84 E6        30.20F                  
EAU CLAIRE     MOCLDY    64  55  72 SE8       30.15F                  
MENOMONIE      CLOUDY    58  53  82 E3        30.15F                  
NEW RICHMOND   MOCLDY    60  52  77 SE5       30.14F                  
OSCEOLA        CLOUDY    59  55  85 CALM      30.16F                  
$$
 
WIZ003>005-009-010-017-018-250500-
NORTH CENTRAL WISCONSIN
  
CITY           SKY/WX    TMP DP  RH WIND       PRES   REMARKS
MANITOWISH WTR FAIR      55  54  96 SE3       30.22F                  
ARBOR VITAE    FAIR      59  55  88 SE7       30.22F                  
WOODRUFF       FAIR      59  55  88 SE7       30.22F                  
RHINELANDER    FAIR      56  52  86 SE6       30.24F                  
EAGLE RIVER    FAIR      57  52  83 S5        30.23F                  
LAND O LAKES   FAIR      56  52  87 SE5       30.25S                  
PHILLIPS       MOCLDY    55  54  96 CALM      30.20F                  
TOMAHAWK       FAIR      56  53  90 SE3       30.23F                  
MEDFORD        FAIR      56  53  88 SE3       30.21S                  
MERRILL        FAIR      59  55  87 SE8       30.23F                  
$$
 
WIZ029-030-035-036-043>047-250500-
CENTRAL WISCONSIN
  
CITY           SKY/WX    TMP DP  RH WIND       PRES   REMARKS
WAUSAU         FAIR      58  55  90 E8        30.21S                  
MOSINEE        FAIR      55  55 100 SE3       30.24S                  
MARSHFIELD     FAIR      59  54  83 SE7       30.21S                  
STEVENS POINT  FAIR      56  52  85 SE3       30.23S                  
WAUPACA        FAIR      57  55  91 CALM      30.23S                  
WAUTOMA        FAIR      57  52  83 E3        30.23S                  
WISC RAPIDS    FAIR      60  53  77 SE6       30.22S                  
CAMP DOUGLAS   FAIR      58  56  92 SE7       30.20S                  
$$
 
WIZ011>013-019>022-031-037>040-048>050-250500-
NORTHEAST WISCONSIN
  
CITY           SKY/WX    TMP DP  RH WIND       PRES   REMARKS
ANTIGO         FAIR      54  52  95 SE8       30.25F                  
SHAWANO        FAIR      59  52  75 SE5       30.24S                  
OCONTO         FAIR      53  51  92 CALM      30.24F                  
STURGEON BAY   FAIR      61  53  75 E3        30.25F                  
GREEN BAY      FAIR      59  52  77 E6        30.24F                  
MANITOWOC      FAIR      55  53  93 CALM      30.24F                  
APPLETON       FAIR      61  45  55 E3        30.23F                  
CLINTONVILLE   FAIR      58  52  80 CALM      30.24S                  
OSHKOSH        FAIR      61  53  75 SE6       30.23S                  
$$
 
WIZ032>034-041-042-053>061-250500-
SOUTHWEST WISCONSIN
  
CITY           SKY/WX    TMP DP  RH WIND       PRES   REMARKS
LA CROSSE      CLOUDY    66  55  67 E7        30.16S                  
SPARTA         FAIR      55  53  93 E5        30.19F                  
VIROQUA        MOCLDY    59  58  97 SE6       30.19F                  
BOSCOBEL       MOCLDY    65  53  65 SE9       30.18F                  
PRAIRIE DU CHI FAIR      61  55  79 E6        30.17S                  
PLATTEVILLE    FAIR      60  55  84 E10       30.19F                  
$$

WIZ056-057-062-063-064-067-068-250500-
SOUTH CENTRAL WISCONSIN
  
CITY           SKY/WX    TMP DP  RH WIND       PRES   REMARKS
REEDSBURG      FAIR      59  52  78 CALM      30.21S                  
BARABOO/DELLS  FAIR      56  49  78 E5        30.22S                  
LONE ROCK      FAIR      57  53  86 E3        30.20S                  
MINERAL POINT  FAIR      61  54  77 E7        30.21S                  
MADISON        FAIR      55  49  80 NE3       30.22S                  
MIDDLETON      FAIR      62  50  64 SE5       30.22S                  
WATERTOWN      FAIR      55  53  96 E3        30.23S                  
MONROE         FAIR      57  51  79 E5        30.22S                  
JANESVILLE     FAIR      55  52  88 E3        30.22S                  
$$
 
WIZ051-052-058>065-066-070>072-250500-
SOUTHEAST WISCONSIN
  
CITY           SKY/WX    TMP DP  RH WIND       PRES   REMARKS
MILWAUKEE      FAIR      67  56  67 E10       30.21F                  
WAUKESHA       FAIR      55  52  88 CALM      30.24R                  
MILWAUKEE/TIMM FAIR      63  52  67 CALM      30.23S                  
RACINE         FAIR      67  57  70 E12       30.23S                  
KENOSHA        FAIR      61  58  90 E3        30.22S                  
FOND DU LAC    FAIR      57  50  77 CALM      30.23F                  
SHEBOYGAN      FAIR      55  51  86 CALM      30.24S                  
WEST BEND      FAIR      52  52 100 CALM      30.23F                  
JUNEAU         FAIR      55  51  86 CALM      30.24S                  
$$

LSZ147-162-250500-
LAKE SUPERIOR
  
STATION/POSITION TIME  TEMP    WIND        PRES    WAVE
                       AIR SEA DIR/SP/G            HT/PER
                 (UTC) (F)     (DEG/KT/KT) (MB)    (FT/S)
W MID LAKE BUOY  0350   65 64  150/ 10/ 12 1021.6F   2/ 4
DEVILS ISLAND    0300   65     140/  7/  8 1022.2F
SAXON HARBOR     0340   58     200/  4/  6 1021.3F
$$
 
LMZ867-665-643>646-250500-
LAKE MICHIGAN
  
STATION/POSITION TIME  TEMP    WIND        PRES    WAVE
                       AIR SEA DIR/SP/G            HT/PER
                 (UTC) (F)     (DEG/KT/KT) (MB)    (FT/S)
S GREEN BAY BUOY 0330   72 70  100/ 10/ 12 1024.0F
N MID LAKE BUOY  0350   68 70   80/ 10/ 12 1024.7F   1
NORTHPORT PIER   0340   67      80/  6/  7 1024.0F
KEWAUNEE LAKESHO 0324   66      90/  8/ 14 1023.3
SHEBOYGAN LAKESH 0400   67      70/ 13/ 14 1023.8F
PORT WASHINGTON  0340   68      70/  9/ 13 1024.4S
ATWATER BUOY     0330   68 69   80/ 14/ 19 1023.3F   2/ 3
S MID LAKE BUOY  0350   70 72   90/ 16/ 19 1023.1F   2/ 4
KENOSHA   LAKESH 0400   70      90/ 14/ 18 1022.7
$$

TC  - TEMPERATURE IN CELSIUS
VSB - VISIBILITY IN STATUTE MILES
WCI - WIND CHILL INDEX
HX  - HEAT INDEX